EN

Hourly Weather Acatlan de Osorio

Today, 4 December, Friday

Time Temperature Precipitation Wind Pressure Humidity
00:00 +18°C° 0 mm 2 mps 653 mmHg 73%
01:00 +17°C° 0 mm 2 mps 652 mmHg 75%
02:00 +17°C° 0 mm 2 mps 652 mmHg 76%
03:00 +17°C° 0 mm 2 mps 652 mmHg 78%
04:00 +16°C° 0 mm 1 mps 652 mmHg 80%
05:00 +16°C° 0 mm 1 mps 652 mmHg 81%
06:00 +19°C° 0 mm 1 mps 653 mmHg 74%
07:00 +20°C° 0 mm 1 mps 654 mmHg 68%
08:00 +22°C° 0 mm 1 mps 655 mmHg 61%
09:00 +23°C° 0 mm 1 mps 655 mmHg 55%
10:00 +25°C° 0 mm 1 mps 655 mmHg 49%
11:00 +27°C° 0 mm 1 mps 655 mmHg 43%
12:00 +28°C° 0 mm 1 mps 654 mmHg 40%
13:00 +28°C° 0 mm 2 mps 654 mmHg 37%
14:00 +29°C° 0 mm 2 mps 653 mmHg 34%
15:00 +28°C° 0 mm 2 mps 653 mmHg 38%
16:00 +26°C° 0 mm 1 mps 653 mmHg 42%
17:00 +25°C° 0 mm 1 mps 653 mmHg 45%
18:00 +24°C° 0 mm 1 mps 653 mmHg 51%
19:00 +23°C° 0 mm 2 mps 654 mmHg 57%
20:00 +20°C° 0 mm 2 mps 654 mmHg 62%
21:00 +20°C° 0 mm 2 mps 654 mmHg 65%
22:00 +19°C° 0 mm 2 mps 654 mmHg 69%
23:00 +18°C° 0 mm 2 mps 654 mmHg 72%

Tomorrow, 5 December, Saturday

Time Temperature Precipitation Wind Pressure Humidity
00:00 +18°C° 0 mm 2 mps 653 mmHg 74%
01:00 +17°C° 0 mm 2 mps 653 mmHg 76%
02:00 +17°C° 0 mm 2 mps 653 mmHg 77%
03:00 +16°C° 0 mm 2 mps 652 mmHg 78%
04:00 +16°C° 0 mm 1 mps 652 mmHg 79%
05:00 +16°C° 0 mm 1 mps 652 mmHg 80%
06:00 +18°C° 0 mm 1 mps 653 mmHg 73%
07:00 +20°C° 0 mm 1 mps 654 mmHg 66%
08:00 +21°C° 0 mm 1 mps 655 mmHg 60%
09:00 +23°C° 0 mm 1 mps 655 mmHg 54%
10:00 +25°C° 0 mm 1 mps 655 mmHg 48%
11:00 +27°C° 0 mm 1 mps 655 mmHg 42%
12:00 +28°C° 0 mm 2 mps 654 mmHg 38%
13:00 +28°C° 0 mm 3 mps 654 mmHg 35%
14:00 +29°C° 0 mm 3 mps 653 mmHg 31%
15:00 +27°C° 0 mm 3 mps 653 mmHg 34%
16:00 +26°C° 0 mm 2 mps 653 mmHg 37%
17:00 +24°C° 0 mm 1 mps 653 mmHg 41%
18:00 +23°C° 0 mm 1 mps 653 mmHg 44%
19:00 +22°C° 0 mm 1 mps 653 mmHg 48%
20:00 +19°C° 0 mm 0 mps 654 mmHg 51%
21:00 +18°C° 0 mm 0 mps 653 mmHg 55%
22:00 +18°C° 0 mm 0 mps 653 mmHg 59%
23:00 +17°C° 0 mm 0 mps 653 mmHg 62%

Day after tomorrow, 6 December, Sunday

Time Temperature Precipitation Wind Pressure Humidity
00:00 +17°C° 0 mm 0 mps 653 mmHg 66%
01:00 +16°C° 0 mm 0 mps 652 mmHg 69%
02:00 +16°C° 0 mm 0 mps 652 mmHg 72%
03:00 +15°C° 0 mm 0 mps 652 mmHg 75%
04:00 +15°C° 0 mm 0 mps 652 mmHg 77%
05:00 +15°C° 0 mm 0 mps 652 mmHg 79%
06:00 +17°C° 0 mm 0 mps 652 mmHg 71%
07:00 +19°C° 0 mm 0 mps 653 mmHg 63%
08:00 +20°C° 0 mm 0 mps 654 mmHg 54%
09:00 +24°C° 0 mm 1 mps 654 mmHg 48%
10:00 +26°C° 0 mm 1 mps 654 mmHg 43%
11:00 +27°C° 0 mm 2 mps 654 mmHg 37%
12:00 +28°C° 0 mm 2 mps 654 mmHg 34%
13:00 +28°C° 0 mm 2 mps 653 mmHg 31%
14:00 +29°C° 0 mm 3 mps 653 mmHg 28%
15:00 +27°C° 0 mm 2 mps 652 mmHg 32%
16:00 +26°C° 0 mm 2 mps 652 mmHg 36%
17:00 +24°C° 0 mm 1 mps 652 mmHg 39%
18:00 +23°C° 0 mm 2 mps 653 mmHg 46%
19:00 +21°C° 0 mm 2 mps 653 mmHg 52%
20:00 +19°C° 0 mm 2 mps 653 mmHg 59%
21:00 +19°C° 0 mm 2 mps 653 mmHg 64%
22:00 +18°C° 0 mm 2 mps 653 mmHg 70%
23:00 +17°C° 0 mm 2 mps 653 mmHg 76%

7 December, Monday

Time Temperature Precipitation Wind Pressure Humidity
00:00 +17°C° 0 mm 2 mps 652 mmHg 77%
01:00 +16°C° 0 mm 2 mps 652 mmHg 78%
02:00 +16°C° 0 mm 2 mps 651 mmHg 79%
03:00 +16°C° 0 mm 2 mps 651 mmHg 80%
04:00 +15°C° 0 mm 2 mps 652 mmHg 80%
05:00 +15°C° 0 mm 2 mps 652 mmHg 81%
06:00 +18°C° 0 mm 1 mps 652 mmHg 74%
07:00 +19°C° 0 mm 1 mps 653 mmHg 67%
08:00 +21°C° 0 mm 1 mps 654 mmHg 60%
09:00 +23°C° 0 mm 1 mps 654 mmHg 53%
10:00 +25°C° 0 mm 1 mps 654 mmHg 46%
11:00 +27°C° 0 mm 1 mps 655 mmHg 39%
12:00 +27°C° 0 mm 1 mps 654 mmHg 37%
13:00 +28°C° 0 mm 2 mps 654 mmHg 34%
14:00 +28°C° 0 mm 2 mps 653 mmHg 32%
15:00 +27°C° 0 mm 2 mps 653 mmHg 37%
16:00 +25°C° 0 mm 2 mps 653 mmHg 42%
17:00 +23°C° 0 mm 2 mps 653 mmHg 47%
18:00 +21°C° 0 mm 2 mps 653 mmHg 52%
19:00 +19°C° 0 mm 3 mps 653 mmHg 58%
20:00 +18°C° 0 mm 3 mps 653 mmHg 64%
21:00 +17°C° 0 mm 3 mps 653 mmHg 66%
22:00 +16°C° 0 mm 2 mps 653 mmHg 69%
23:00 +16°C° 0 mm 2 mps 653 mmHg 72%

8 December, Tuesday

Time Temperature Precipitation Wind Pressure Humidity
00:00 +15°C° 0 mm 2 mps 653 mmHg 73%
01:00 +15°C° 0 mm 2 mps 652 mmHg 74%
02:00 +14°C° 0 mm 2 mps 652 mmHg 75%
03:00 +14°C° 0 mm 2 mps 652 mmHg 75%
04:00 +14°C° 0 mm 2 mps 652 mmHg 75%
05:00 +14°C° 0 mm 2 mps 652 mmHg 76%
06:00 +15°C° 0 mm 2 mps 653 mmHg 69%
07:00 +17°C° 0 mm 2 mps 654 mmHg 62%
08:00 +18°C° 0 mm 2 mps 655 mmHg 55%
09:00 +21°C° 0 mm 2 mps 655 mmHg 49%
10:00 +24°C° 0 mm 2 mps 655 mmHg 42%
11:00 +26°C° 0 mm 2 mps 655 mmHg 36%
12:00 +27°C° 0 mm 2 mps 655 mmHg 34%
13:00 +28°C° 0 mm 2 mps 655 mmHg 32%
14:00 +28°C° 0 mm 3 mps 654 mmHg 31%
15:00 +27°C° 0 mm 3 mps 654 mmHg 36%
16:00 +25°C° 0 mm 3 mps 654 mmHg 41%
17:00 +22°C° 0 mm 3 mps 654 mmHg 46%
18:00 +21°C° 0 mm 3 mps 654 mmHg 52%
19:00 +19°C° 0 mm 3 mps 654 mmHg 58%
20:00 +18°C° 0 mm 3 mps 655 mmHg 64%
21:00 +17°C° 0 mm 3 mps 655 mmHg 66%
22:00 +17°C° 0 mm 3 mps 655 mmHg 68%
23:00 +16°C° 0 mm 2 mps 655 mmHg 71%

9 December, Wednesday

Time Temperature Precipitation Wind Pressure Humidity
00:00 +15°C° 0 mm 2 mps 654 mmHg 72%
01:00 +15°C° 0 mm 2 mps 654 mmHg 73%
02:00 +15°C° 0 mm 2 mps 653 mmHg 75%
03:00 +14°C° 0 mm 2 mps 653 mmHg 76%
04:00 +14°C° 0 mm 2 mps 653 mmHg 77%
05:00 +14°C° 0 mm 2 mps 653 mmHg 78%
06:00 +15°C° 0 mm 2 mps 654 mmHg 71%
07:00 +17°C° 0 mm 2 mps 655 mmHg 64%
08:00 +18°C° 0 mm 2 mps 655 mmHg 58%
09:00 +21°C° 0 mm 2 mps 656 mmHg 51%
10:00 +24°C° 0 mm 2 mps 656 mmHg 44%
11:00 +26°C° 0 mm 2 mps 656 mmHg 37%
12:00 +27°C° 0 mm 2 mps 655 mmHg 35%
13:00 +28°C° 0 mm 2 mps 655 mmHg 32%
14:00 +29°C° 0 mm 2 mps 654 mmHg 30%
15:00 +27°C° 0 mm 2 mps 654 mmHg 34%
16:00 +25°C° 0 mm 2 mps 654 mmHg 38%
17:00 +24°C° 0 mm 2 mps 654 mmHg 42%
18:00 +21°C° 0 mm 2 mps 654 mmHg 47%
19:00 +20°C° 0 mm 2 mps 654 mmHg 52%
20:00 +19°C° 0 mm 2 mps 654 mmHg 57%
21:00 +18°C° 0 mm 2 mps 654 mmHg 60%
22:00 +17°C° 0 mm 2 mps 654 mmHg 64%
23:00 +16°C° 0 mm 2 mps 654 mmHg 67%
Show more